Helena, Arkansas, United States (72342)
Lat: 34.53N, Lon: 90.59W
Wx Zone: ARZ058
Local Info
Past Weather Observations for Sunday, January 25, 2015

NOTE: This archive is for the closest National Weather Service station to Helena. Information may differ from the station used for current weather conditions.

Click here for Long-term Archive

Time Weather Temperature Dewpoint Humidity Pressure Winds Precip Visibility
23:55
Overcast
43°F / 6°C 36°F / 2°C 76% 29.98 in
(1015 mb)
NW 21.9 mph
(NW 35 kph)
- 10SM
23:35
Overcast
45°F / 7°C 36°F / 2°C 71% 29.98 in
(1015 mb)
NW 18.4 mph
(NW 30 kph)
- 10SM
23:15
Overcast
45°F / 7°C 36°F / 2°C 71% 29.98 in
(1015 mb)
NW 18.4 mph
(NW 30 kph)
- 10SM
22:55
Overcast
45°F / 7°C 36°F / 2°C 71% 29.95 in
(1014 mb)
NW 23 mph
(NW 37 kph)
- 10SM
22:35
Overcast
45°F / 7°C 36°F / 2°C 71% 29.95 in
(1014 mb)
NW 19.6 mph
(NW 32 kph)
- 10SM
22:15
Overcast
45°F / 7°C 34°F / 1°C 66% 29.95 in
(1014 mb)
NW 17.3 mph
(NW 28 kph)
- 10SM
21:55
Overcast
45°F / 7°C 34°F / 1°C 66% 29.95 in
(1014 mb)
NW 18.4 mph
(NW 30 kph)
- 10SM
21:35
Overcast
45°F / 7°C 34°F / 1°C 66% 29.95 in
(1014 mb)
NW 19.6 mph
(NW 32 kph)
- 10SM
21:15
Overcast
45°F / 7°C 36°F / 2°C 71% 29.95 in
(1014 mb)
NW 15 mph
(NW 24 kph)
- 10SM
20:55
Overcast
45°F / 7°C 36°F / 2°C 71% 29.95 in
(1014 mb)
NW 15 mph
(NW 24 kph)
- 10SM
20:35
Overcast
45°F / 7°C 36°F / 2°C 71% 29.92 in
(1013 mb)
NW 15 mph
(NW 24 kph)
- 10SM
20:15
Overcast
45°F / 7°C 36°F / 2°C 71% 29.92 in
(1013 mb)
NW 12.7 mph
(NW 20 kph)
- 10SM
19:55
Overcast
46°F / 8°C 36°F / 2°C 66% 29.92 in
(1013 mb)
NW 16.1 mph
(NW 26 kph)
- 10SM
19:35
Overcast
46°F / 8°C 36°F / 2°C 66% 29.92 in
(1013 mb)
NW 17.3 mph
(NW 28 kph)
- 10SM
19:15
Overcast
46°F / 8°C 36°F / 2°C 66% 29.89 in
(1012 mb)
NW 15 mph
(NW 24 kph)
- 10SM
18:55
Overcast
46°F / 8°C 37°F / 3°C 71% 29.89 in
(1012 mb)
NW 12.7 mph
(NW 20 kph)
- 10SM
18:35
Overcast
48°F / 9°C 37°F / 3°C 66% 29.89 in
(1012 mb)
NW 23 mph
(NW 37 kph)
- 10SM
18:15
Overcast
48°F / 9°C 37°F / 3°C 66% 29.86 in
(1011 mb)
NW 20.7 mph
(NW 33 kph)
- 10SM
17:55
Overcast
50°F / 10°C 37°F / 3°C 62% 29.86 in
(1011 mb)
WNW 23 mph
(WNW 37 kph)
- 10SM
17:35
Overcast
50°F / 10°C 39°F / 4°C 67% 29.83 in
(1010 mb)
NW 20.7 mph
(NW 33 kph)
- 10SM
17:15
Mostly Cloudy
50°F / 10°C 37°F / 3°C 62% 29.8 in
(1009 mb)
WNW 18.4 mph
(WNW 30 kph)
- 10SM
16:55
Partly Cloudy
52°F / 11°C 39°F / 4°C 62% 29.8 in
(1009 mb)
WNW 20.7 mph
(WNW 33 kph)
- 10SM
16:35
Partly Cloudy
52°F / 11°C 39°F / 4°C 62% 29.8 in
(1009 mb)
WNW 18.4 mph
(WNW 30 kph)
- 10SM
16:15
Partly Cloudy
52°F / 11°C 41°F / 5°C 67% 29.77 in
(1008 mb)
W 12.7 mph
(W 20 kph)
- 10SM
15:55
Overcast
50°F / 10°C 43°F / 6°C 76% 29.77 in
(1008 mb)
W 10.4 mph
(W 17 kph)
0.06 in
(1.52 mm)
10SM
15:35
Overcast
Light Rain
52°F / 11°C 43°F / 6°C 72% 29.77 in
(1008 mb)
SSW 17.3 mph
(SSW 28 kph)
0.06 in
(1.52 mm)
10SM
15:15
Mostly Cloudy
Rain
52°F / 11°C 41°F / 5°C 67% 29.74 in
(1007 mb)
W 13.8 mph
(W 22 kph)
0.06 in
(1.52 mm)
5SM
14:55
Partly Cloudy
55°F / 13°C 41°F / 5°C 59% 29.71 in
(1006 mb)
SW 11.5 mph
(SW 19 kph)
- 10SM
14:35
Partly Cloudy
55°F / 13°C 43°F / 6°C 63% 29.71 in
(1006 mb)
SW 10.4 mph
(SW 17 kph)
- 10SM
14:15
Mostly Cloudy
55°F / 13°C 41°F / 5°C 59% 29.71 in
(1006 mb)
SW 9.2 mph
(SW 15 kph)
- 10SM
13:55
Mostly Cloudy
55°F / 13°C 41°F / 5°C 59% 29.71 in
(1006 mb)
SW 11.5 mph
(SW 19 kph)
- 10SM
13:35
Partly Cloudy
57°F / 14°C 41°F / 5°C 55% 29.71 in
(1006 mb)
SSW 11.5 mph
(SSW 19 kph)
- 10SM
13:15
Clear
55°F / 13°C 41°F / 5°C 59% 29.71 in
(1006 mb)
SSW 10.4 mph
(SSW 17 kph)
- 10SM
12:55
Clear
55°F / 13°C 41°F / 5°C 59% 29.71 in
(1006 mb)
SSW 13.8 mph
(SSW 22 kph)
- 10SM
12:35
Clear
54°F / 12°C 43°F / 6°C 67% 29.71 in
(1006 mb)
SSW 12.7 mph
(SSW 20 kph)
- 10SM
12:15
Clear
52°F / 11°C 43°F / 6°C 72% 29.74 in
(1007 mb)
SW 10.4 mph
(SW 17 kph)
- 10SM
11:55
Clear
50°F / 10°C 43°F / 6°C 76% 29.74 in
(1007 mb)
SW 12.7 mph
(SW 20 kph)
0.01 in
(0.25 mm)
10SM
11:35
Clear
48°F / 9°C 43°F / 6°C 82% 29.74 in
(1007 mb)
SW 12.7 mph
(SW 20 kph)
0.01 in
(0.25 mm)
10SM
11:15
Mostly Cloudy
Light Rain
46°F / 8°C 41°F / 5°C 82% 29.77 in
(1008 mb)
SW 12.7 mph
(SW 20 kph)
0.01 in
(0.25 mm)
10SM
10:55
Mostly Cloudy
46°F / 8°C 37°F / 3°C 71% 29.77 in
(1008 mb)
SW 11.5 mph
(SW 19 kph)
- 10SM
10:35
Clear
46°F / 8°C 39°F / 4°C 76% 29.77 in
(1008 mb)
S 13.8 mph
(S 22 kph)
- 10SM
10:15
Clear
45°F / 7°C 37°F / 3°C 76% 29.77 in
(1008 mb)
SSE 13.8 mph
(SSE 22 kph)
- 10SM
09:55
Clear
45°F / 7°C 37°F / 3°C 76% 29.77 in
(1008 mb)
SW 15 mph
(SW 24 kph)
- 10SM
09:35
Clear
45°F / 7°C 37°F / 3°C 76% 29.77 in
(1008 mb)
S 15 mph
(S 24 kph)
- 10SM
09:15
Clear
45°F / 7°C 37°F / 3°C 76% 29.77 in
(1008 mb)
SSE 12.7 mph
(SSE 20 kph)
- 10SM
08:55
Clear
43°F / 6°C 37°F / 3°C 81% 29.77 in
(1008 mb)
SSE 15 mph
(SSE 24 kph)
- 10SM
08:35
Clear
43°F / 6°C 36°F / 2°C 76% 29.77 in
(1008 mb)
S 13.8 mph
(S 22 kph)
- 10SM
08:15
Clear
41°F / 5°C 36°F / 2°C 81% 29.77 in
(1008 mb)
S 12.7 mph
(S 20 kph)
- 10SM
07:55
Clear
41°F / 5°C 36°F / 2°C 81% 29.8 in
(1009 mb)
S 11.5 mph
(S 19 kph)
- 10SM
07:35
Clear
39°F / 4°C 36°F / 2°C 87% 29.8 in
(1009 mb)
S 9.2 mph
(S 15 kph)
- 10SM
07:15
Clear
37°F / 3°C 34°F / 1°C 87% 29.8 in
(1009 mb)
S 9.2 mph
(S 15 kph)
- 10SM
06:55
Clear
37°F / 3°C 34°F / 1°C 87% 29.8 in
(1009 mb)
S 11.5 mph
(S 19 kph)
- 10SM
06:35
Clear
37°F / 3°C 34°F / 1°C 87% 29.83 in
(1010 mb)
S 9.2 mph
(S 15 kph)
- 10SM
06:15
Clear
36°F / 2°C 34°F / 1°C 93% 29.83 in
(1010 mb)
S 9.2 mph
(S 15 kph)
- 10SM
05:55
Clear
36°F / 2°C 32°F / 0°C 87% 29.83 in
(1010 mb)
SSE 9.2 mph
(SSE 15 kph)
- 10SM
05:35
Clear
36°F / 2°C 32°F / 0°C 87% 29.83 in
(1010 mb)
S 8.1 mph
(S 13 kph)
- 10SM
05:15
Clear
36°F / 2°C 34°F / 1°C 93% 29.83 in
(1010 mb)
S 9.2 mph
(S 15 kph)
- 10SM
04:55
Clear
36°F / 2°C 34°F / 1°C 93% 29.83 in
(1010 mb)
S 8.1 mph
(S 13 kph)
- 10SM
04:35
Clear
37°F / 3°C 34°F / 1°C 87% 29.86 in
(1011 mb)
S 6.9 mph
(S 11 kph)
- 10SM
04:15
Clear
37°F / 3°C 34°F / 1°C 87% 29.86 in
(1011 mb)
S 8.1 mph
(S 13 kph)
- 10SM
03:55
Clear
36°F / 2°C 34°F / 1°C 93% 29.86 in
(1011 mb)
SSE 8.1 mph
(SSE 13 kph)
- 10SM
03:35
Clear
34°F / 1°C 32°F / 0°C 93% 29.89 in
(1012 mb)
S 3.5 mph
(S 6 kph)
- 10SM
03:15
Clear
34°F / 1°C 32°F / 0°C 93% 29.89 in
(1012 mb)
S 8.1 mph
(S 13 kph)
- 10SM
02:55
Clear
36°F / 2°C 32°F / 0°C 87% 29.89 in
(1012 mb)
SSE 8.1 mph
(SSE 13 kph)
- 10SM
02:35
Clear
34°F / 1°C 32°F / 0°C 93% 29.89 in
(1012 mb)
SSE 10.4 mph
(SSE 17 kph)
- 10SM
02:15
Clear
37°F / 3°C 32°F / 0°C 81% 29.89 in
(1012 mb)
S 4.6 mph
(S 7 kph)
- 10SM
01:55
Clear
36°F / 2°C 32°F / 0°C 87% 29.92 in
(1013 mb)
SSE 9.2 mph
(SSE 15 kph)
- 10SM
01:35
Clear
36°F / 2°C 32°F / 0°C 87% 29.92 in
(1013 mb)
SW 8.1 mph
(SW 13 kph)
- 10SM
01:15
Clear
37°F / 3°C 34°F / 1°C 87% 29.92 in
(1013 mb)
SW 6.9 mph
(SW 11 kph)
- 10SM
00:55
Clear
37°F / 3°C 34°F / 1°C 87% 29.92 in
(1013 mb)
SW 5.8 mph
(SW 9 kph)
- 10SM
00:35
Clear
37°F / 3°C 34°F / 1°C 87% 29.92 in
(1013 mb)
SSE 6.9 mph
(SSE 11 kph)
- 10SM
00:15
Clear
36°F / 2°C 32°F / 0°C 87% 29.92 in
(1013 mb)
S 6.9 mph
(S 11 kph)
- 10SM
Time Weather Temperature Dewpoint Humidity Pressure Winds Precip Visibility


Weather for websites

WeatherForYou.com, LLC is not responsible for any damages or problems caused by this service. Current weather conditions are obtained from the closest station including government and personal stations which may have varying degrees of accuracy. Weather forecasts are derived from the NOAA NDFD. Like all things, this site belongs to Jesus Christ... He just trusts me to maintain it. If you have any questions or comments email webmaster@weatherforyou.com

Copyright © 2015, WeatherForYou.com LLC. All rights reserved.